User: anonymous   Login
Location: Bismarck
(46.7731°N, 100.8200°W)
Time: 05:23:12
(UTC-06:00)
Language:

Cosmos 2219 Rocket - Orbit

View from above orbital plane
View from above orbital plane
View from above satellite
View from above satellite

Ground track
Ground track

The orbit data is extracted from the following two-line orbital elements,

1 22220U 92076B   14354.07832497  .00000190  00000-0  11990-3 0  4830
2 22220 070.9995 174.8687 0014228 227.4625 271.5845 14.16341433141902
Epoch (UTC): 20 December 2014 01:52:47
Eccentricity: 0.0014228
inclination: 70.9995°
perigee height: 827 km
apogee height: 848 km
right ascension of ascending node: 174.8687°
argument of perigee: 227.4625°
revolutions per day: 14.16341433
mean anomaly at epoch: 271.5845°
orbit number at epoch: 14190

The dashed part of the orbit path shows where the satellite is in the earth's shadow,  

DLR